GFSNGP_250_rhum_006.txt.gz
RH
27 32 28 26 28 29 34 45 46 32 27 43 46 58 57 52 79 94 100 85 69 78 70 72 70 87 90 74 87 97 97 100 99 93 83 63 53 56 45 38 25 14 10 8
24 37 25 28 34 47 55 58 65 72 86 100 100 64 63 96 94 78 67 71 56 43 50 54 63 66 76 77 80 91 92 88 96 87 67 39 43 40 37 28 15 9 8 8
30 37 42 53 69 96 100 99 92 76 62 56 64 60 71 67 61 63 45 42 39 43 56 72 78 88 83 79 78 80 75 88 75 51 33 31 33 34 30 17 9 8 8 9
48 51 44 45 63 60 41 53 54 53 70 70 56 50 50 52 54 52 45 44 49 56 69 91 96 98 94 93 83 94 98 84 69 30 27 28 29 26 19 9 8 8 8 7
48 43 41 53 96 63 53 51 55 63 56 47 49 39 43 48 42 42 52 64 68 78 86 94 94 90 97 89 89 99 91 85 45 24 23 24 21 17 9 8 8 8 7 5
91 68 58 82 66 61 55 51 55 54 57 64 64 71 68 66 76 78 94 100 100 100 98 99 92 86 83 75 64 69 68 43 24 19 22 18 14 10 8 8 8 7 6 5
64 71 70 73 68 57 58 56 58 61 68 71 80 92 100 100 100 100 100 100 98 94 90 90 79 79 67 61 56 46 32 19 18 19 18 14 10 8 8 9 8 6 6 5
65 66 63 55 48 65 87 90 84 92 100 100 100 100 100 100 99 93 94 82 75 70 71 66 66 63 53 45 31 22 16 14 16 17 14 10 7 7 8 8 6 6 6 5
86 65 70 80 97 100 100 86 96 100 97 73 69 72 74 72 60 59 59 60 63 67 61 57 51 45 31 21 16 13 12 14 14 13 11 7 7 8 9 7 6 6 5 4
75 93 86 98 98 95 97 93 80 77 71 72 69 69 69 57 56 59 70 67 57 48 39 32 24 17 15 13 11 11 13 12 12 11 8 6 8 8 7 7 6 6 4 4
53 62 57 63 67 70 67 63 61 60 68 66 62 61 53 56 57 57 44 39 26 17 13 14 14 13 11 10 12 12 11 11 10 7 6 7 8 8 7 6 6 5 4 4
53 60 70 71 68 63 70 68 64 64 65 71 67 64 67 52 45 35 21 12 11 12 13 13 10 9 10 12 11 10 11 9 7 6 7 8 8 6 6 6 5 4 4 5
68 65 60 69 71 84 89 83 77 78 64 58 57 56 43 20 15 13 12 12 12 12 11 9 9 10 12 11 11 11 8 6 6 7 8 8 7 7 6 5 4 4 5 6
78 87 99 100 100 96 92 90 67 56 61 42 31 19 15 16 14 13 13 12 12 11 9 11 13 12 11 11 11 8 6 6 7 7 7 6 6 6 5 4 4 5 5 6
100 100 100 94 99 97 89 61 57 53 34 22 18 18 17 16 15 15 14 13 12 13 14 14 12 11 11 10 7 6 6 6 7 7 6 6 6 5 4 4 4 6 6 6
100 100 98 81 82 68 48 45 41 27 18 17 16 17 18 17 17 17 16 15 15 14 13 12 12 11 8 6 6 5 6 7 6 6 6 5 5 4 3 4 6 7 6 6
93 84 93 75 50 40 32 24 18 17 18 20 20 19 19 19 18 17 16 15 14 12 11 11 10 6 6 5 5 6 6 6 5 5 5 4 4 3 3 5 6 7 6 6
89 85 69 40 24 25 19 18 18 18 18 19 17 18 17 16 15 14 14 12 12 11 10 9 6 6 5 5 6 6 5 5 5 5 4 4 3 3 4 6 6 6 6 6
81 47 26 26 22 14 15 16 16 17 17 17 16 16 14 13 13 12 12 11 11 9 6 6 6 5 6 6 6 5 5 5 4 4 4 3 3 3 4 5 5 6 5 5
27 19 18 16 15 15 16 16 17 18 17 16 14 13 13 12 12 11 11 10 7 6 5 6 6 6 6 5 5 5 5 4 4 4 3 3 3 3 4 5 5 5 5 5
17 15 15 14 14 15 15 15 16 16 14 12 12 12 12 11 11 10 7 6 6 6 6 5 6 6 5 5 5 5 4 4 4 3 2 3 3 4 4 4 5 5 5 4
13 12 12 12 13 14 14 14 13 12 11 11 11 11 11 10 7 6 6 6 6 6 6 6 6 5 5 5 5 4 4 4 3 2 3 3 4 4 4 4 5 5 4 4
11 11 11 11 11 11 12 11 10 10 11 11 10 8 6 6 6 5 6 6 6 6 6 6 5 5 5 5 4 4 4 3 2 3 3 3 4 4 4 4 5 4 4 4
9 10 10 11 11 10 10 10 10 10 9 7 6 6 5 5 5 6 7 6 7 6 6 5 5 5 5 4 5 4 3 3 3 3 3 4 4 4 4 4 4 4 4 4
10 10 10 10 10 10 10 9 7 5 5 5 5 5 5 6 7 7 7 7 6 6 6 5 6 5 5 5 4 3 3 3 3 3 3 4 4 4 4 4 4 4 4 4
10 10 10 9 8 7 5 5 5 5 5 5 5 5 6 7 7 7 6 6 6 6 6 6 5 5 5 4 3 3 3 3 3 3 4 4 3 4 4 4 4 4 4 4
8 7 5 4 4 4 4 5 4 4 4 5 6 7 7 7 7 6 6 6 6 6 6 5 5 5 4 3 3 3 3 3 3 3 4 4 3 3 4 4 4 4 4 4

GFSNGP_250_rhum_012.txt.gz
RH
48 50 53 69 65 75 81 86 68 73 83 84 83 84 78 85 87 75 71 77 83 77 68 63 61 64 62 58 52 57 59 55 51 44 26 20 15 13 12 12 13 12 10 12
100 66 64 80 77 82 78 90 81 74 76 82 88 88 86 72 62 83 83 66 52 53 64 64 58 60 57 64 65 58 41 37 33 20 15 13 13 11 11 10 9 9 12 11
70 74 74 100 86 81 70 65 64 70 74 79 73 59 53 52 86 76 63 60 57 60 66 61 57 58 60 64 52 36 30 27 18 14 15 14 13 12 10 10 10 11 10 9
44 40 43 60 43 48 49 52 66 73 60 45 43 54 70 78 69 63 73 67 68 66 56 56 65 60 56 44 29 24 22 16 15 16 17 16 14 12 13 14 13 11 10 9
50 42 52 75 63 70 64 67 60 54 49 47 53 64 54 49 71 98 90 86 69 55 58 65 56 56 50 28 22 18 17 17 17 17 16 15 15 15 14 14 12 11 9 7
71 57 62 78 68 62 53 45 43 47 51 53 50 53 61 67 66 73 73 73 69 62 65 58 53 44 32 22 20 16 16 16 16 16 15 15 14 14 13 12 11 10 7 6
64 76 77 68 56 48 47 46 48 46 47 52 56 63 62 64 64 78 73 65 66 72 67 59 52 32 23 18 16 15 15 15 15 14 13 12 12 11 11 10 9 7 6 6
64 59 55 48 38 36 42 47 50 53 57 65 66 68 75 80 88 72 80 90 81 70 60 47 34 20 18 17 15 14 14 14 13 12 11 10 10 10 9 8 6 6 5 6
63 48 39 35 46 60 56 51 56 71 79 83 87 81 77 80 74 74 70 73 60 54 45 24 19 17 15 14 13 13 13 12 11 10 10 10 9 9 7 6 6 5 6 6
51 58 52 57 66 64 86 92 99 79 75 78 75 75 72 70 67 65 65 60 54 38 21 18 17 15 14 12 11 11 12 10 10 10 10 8 7 5 5 5 6 6 6 6
45 58 52 74 85 99 87 74 65 82 100 94 88 79 80 72 66 68 57 46 28 19 16 13 12 12 11 11 11 11 10 10 9 9 7 5 5 5 5 6 7 6 5 6
59 72 73 96 90 80 75 79 94 100 100 99 91 91 72 65 64 56 38 24 19 15 12 11 10 10 10 10 10 10 10 9 8 6 5 5 5 5 6 6 6 6 6 6
85 97 100 100 81 76 84 84 88 90 99 86 77 63 65 62 53 33 20 15 13 11 10 9 10 10 10 9 9 9 8 6 5 5 5 5 6 6 5 4 5 6 5 5
95 93 82 80 89 89 84 94 91 95 96 93 72 68 57 41 24 16 14 11 10 9 9 9 9 9 9 9 8 6 5 5 5 5 5 5 5 5 5 5 4 5 4 4
94 93 100 100 92 83 88 88 90 92 95 73 58 47 33 20 15 12 9 9 9 9 9 9 9 9 8 6 5 5 5 6 5 5 5 4 5 5 4 4 4 4 4 3
96 92 92 94 93 81 82 96 86 68 56 52 46 25 16 13 10 9 9 9 10 10 9 9 9 7 5 5 5 5 6 6 6 5 5 4 4 4 4 4 4 3 3 3
70 72 73 69 72 88 81 66 49 46 40 27 18 14 11 9 9 9 10 10 10 9 10 8 6 5 5 5 5 6 6 5 5 5 4 4 4 4 4 4 3 3 3 3
82 73 81 85 76 69 54 43 41 32 20 16 12 9 8 8 9 10 10 9 9 9 6 5 5 5 4 6 6 6 5 5 5 4 4 4 4 4 3 3 2 3 3 4
65 64 56 50 44 36 30 26 20 15 13 11 8 8 8 9 9 9 9 8 6 5 5 5 4 4 6 6 6 6 6 5 5 4 4 4 4 3 3 3 3 3 4 4
40 39 33 24 23 21 15 13 11 9 9 7 7 8 8 9 9 8 6 4 5 5 5 4 5 6 7 6 6 6 6 5 5 4 4 4 3 3 3 3 4 4 5 5
34 27 19 15 15 14 12 8 8 8 7 7 7 8 8 8 6 4 4 5 5 5 4 6 7 6 6 6 6 5 5 5 4 4 3 2 2 3 3 3 4 4 4 5
15 14 14 13 10 8 8 7 7 7 6 7 7 7 5 4 4 4 5 5 5 5 6 7 6 6 6 6 6 5 5 5 4 3 2 2 3 3 3 3 4 4 4 4
12 10 8 7 6 6 6 7 7 7 7 6 4 4 4 4 5 5 6 5 5 7 7 6 6 6 6 6 6 5 5 5 4 2 2 2 3 3 3 3 4 4 4 4
8 8 7 6 6 6 7 6 6 5 4 3 4 4 5 5 6 6 6 6 6 6 6 6 6 6 6 6 5 5 5 4 3 2 2 2 3 3 3 3 4 4 4 4
7 6 6 6 6 6 5 4 4 4 4 4 4 5 6 6 6 6 6 6 6 6 6 6 6 6 6 5 5 5 4 3 3 2 3 3 3 3 3 3 3 4 4 4
6 6 6 5 4 4 4 4 4 4 4 5 5 5 6 6 6 6 6 6 6 6 6 6 6 6 5 5 5 4 3 3 3 3 3 3 3 3 3 3 3 4 4 4
5 4 4 4 4 4 4 4 4 5 5 5 6 6 6 6 5 5 5 5 6 6 6 6 6 5 6 6 4 3 3 3 3 3 3 3 3 3 3 3 3 3 4 4

GFSNGP_250_rhum_015.txt.gz
RH
68 64 66 69 53 53 52 45 47 59 66 61 64 69 63 58 51 56 56 54 58 64 71 82 77 73 66 61 57 57 51 54 53 47 31 25 21 18 17 15 16 16 17 17
76 50 45 50 44 41 43 42 52 60 67 68 67 61 53 55 54 54 56 62 80 91 78 75 75 73 67 64 64 54 54 47 38 27 20 17 15 14 14 14 14 15 14 15
64 54 49 62 47 47 52 55 62 73 75 67 56 44 46 53 53 56 66 83 77 72 83 88 82 75 56 63 53 49 41 30 21 18 15 14 13 14 14 14 14 13 13 12
48 42 43 82 41 41 48 57 63 63 59 49 41 42 48 52 55 74 86 75 73 91 97 74 75 70 73 55 44 38 26 19 15 13 12 12 13 13 13 13 12 12 11 11
48 37 38 54 40 46 53 70 66 60 52 49 49 57 77 89 97 83 73 74 92 89 80 84 92 82 62 54 43 25 17 14 12 12 11 11 12 12 12 12 11 11 10 10
48 46 50 60 66 62 58 62 57 63 56 49 57 56 71 99 90 84 91 95 95 88 87 83 81 70 49 39 22 17 14 12 10 10 10 10 11 11 11 11 11 11 10 8
67 75 81 84 65 54 61 60 63 54 50 53 65 87 94 90 83 88 83 90 99 99 85 79 62 49 39 24 17 14 10 9 9 10 10 10 10 10 10 10 9 8 6 5
89 72 62 60 55 67 71 66 59 61 65 88 86 86 89 94 98 95 100 100 84 68 68 62 48 33 25 18 13 10 9 9 9 10 10 9 9 9 8 7 6 5 5 5
71 62 61 53 62 61 54 60 65 84 87 86 81 88 100 100 91 97 100 76 71 60 57 41 29 20 16 11 10 9 9 10 10 10 10 9 8 6 5 5 6 6 5 6
47 56 51 60 56 63 77 89 87 90 95 96 97 98 95 93 86 81 65 58 61 52 38 26 18 14 10 8 8 9 9 9 9 9 7 5 5 5 5 6 6 6 6 5
53 60 58 79 91 84 88 84 78 84 97 100 100 99 97 80 68 54 53 51 46 31 22 16 11 9 8 8 9 9 9 9 8 5 5 5 5 5 6 6 6 6 5 5
55 77 84 97 85 85 84 84 97 99 100 100 95 87 80 69 61 57 48 41 23 18 14 10 8 8 8 8 9 9 9 6 4 4 5 5 6 6 6 6 6 5 5 5
91 100 92 78 92 91 85 84 98 95 70 75 87 80 74 65 58 46 26 18 14 12 8 7 8 8 9 9 9 7 5 4 4 5 6 6 6 5 5 4 5 5 4 5
88 88 89 87 92 98 88 95 92 71 69 71 80 71 56 43 25 16 15 13 9 8 7 8 8 8 9 8 5 4 4 4 5 6 6 5 5 5 5 5 4 4 4 4
92 92 99 100 98 95 96 88 94 100 89 70 66 43 26 20 16 14 11 9 8 7 8 8 8 8 6 5 5 5 4 5 6 6 5 5 5 5 4 4 4 4 4 4
93 97 87 85 91 100 100 100 98 81 66 46 30 24 17 14 14 11 9 8 7 8 8 8 6 5 5 5 4 4 6 6 6 5 5 4 5 4 4 4 4 4 3 3
91 91 77 76 95 100 97 62 55 53 40 28 25 18 15 12 9 8 8 8 8 8 7 5 5 5 5 4 4 6 7 5 5 5 5 5 4 4 4 3 3 2 2 3
76 80 73 62 78 90 76 58 49 35 20 16 14 13 10 8 7 7 8 8 8 6 4 4 5 5 5 5 7 6 5 5 5 5 5 4 4 4 3 3 3 3 3 3
74 64 78 82 72 55 46 34 20 15 14 12 10 9 7 7 7 8 8 6 4 4 4 5 5 5 5 6 6 6 5 5 5 5 5 5 4 3 2 2 3 3 3 4
63 70 72 61 47 45 18 13 13 12 10 8 7 6 6 7 7 6 5 4 4 5 5 6 6 5 6 6 5 6 5 5 5 5 5 4 3 2 2 3 3 3 3 4
59 60 58 35 18 13 13 12 10 7 6 6 6 6 7 6 4 4 5 5 5 5 6 6 6 6 6 6 5 6 6 6 5 5 4 3 2 2 3 3 3 3 3 4
59 48 26 14 13 12 12 9 6 6 6 6 6 5 4 4 4 4 5 5 5 6 6 6 6 6 6 6 5 6 6 5 5 5 3 3 3 3 3 3 3 3 3 4
16 13 13 12 10 8 7 6 6 6 6 5 4 4 4 4 4 5 5 6 6 6 6 6 6 5 6 5 6 6 5 5 5 4 3 3 3 3 3 3 4 3 3 4
12 12 10 8 7 6 6 6 5 4 4 4 4 4 5 5 5 5 6 6 6 6 6 6 6 6 6 6 6 5 5 5 4 4 3 3 3 3 3 3 4 4 3 4
8 8 7 6 5 5 5 4 4 4 4 4 5 5 5 5 6 6 6 6 6 6 6 6 6 6 6 6 5 6 5 4 4 4 4 3 3 3 3 3 3 4 4 4
6 6 5 5 4 4 4 4 4 4 4 5 5 5 5 6 6 6 5 5 6 6 6 6 6 6 6 6 6 5 4 4 4 4 4 3 3 3 3 3 3 3 4 4
6 5 4 4 3 4 4 4 4 5 5 5 5 6 6 6 5 5 6 6 6 6 6 6 6 6 6 6 4 4 4 4 4 4 4 3 3 3 3 3 3 3 3 3

GFSNGP_250_rhum_018.txt.gz
RH
41 48 74 84 49 40 38 38 33 39 44 50 62 78 81 73 68 70 74 85 100 98 98 100 100 100 99 93 89 78 69 68 58 56 46 35 23 18 14 12 11 10 10 10
57 43 50 76 53 45 46 45 49 57 71 84 91 77 73 77 86 84 77 90 90 88 93 98 99 98 94 82 72 68 58 51 49 41 29 20 15 11 9 8 8 8 8 8
78 70 70 74 50 45 52 57 67 83 88 78 79 72 92 90 74 73 69 57 75 87 90 82 90 82 81 74 73 63 53 48 33 22 16 13 9 8 8 8 8 9 9 9
60 59 55 71 59 61 66 79 90 83 70 72 80 76 63 58 54 57 68 81 87 88 85 82 80 78 76 69 67 54 42 25 19 14 11 9 8 8 8 9 9 9 9 9
63 48 46 96 74 62 62 86 75 73 73 57 50 56 58 52 78 82 99 90 100 100 84 90 91 85 70 66 52 32 20 16 12 10 8 8 8 9 9 9 9 9 9 9
48 41 41 74 48 63 75 72 60 58 53 51 62 62 66 97 98 97 96 92 100 99 100 94 82 68 61 37 21 17 14 12 9 8 8 8 9 9 9 9 9 8 6 5
53 54 64 72 72 69 59 52 51 48 56 69 76 79 94 93 96 99 98 100 98 92 82 62 58 50 28 20 16 13 10 8 8 8 9 9 9 9 9 6 5 5 4 4
62 66 94 90 75 68 62 56 55 68 72 73 75 92 87 88 100 99 100 93 100 95 78 59 38 22 17 15 13 10 8 7 8 8 9 9 9 6 5 5 4 4 5 5
68 83 85 73 81 75 69 64 68 70 81 93 95 97 100 99 97 94 85 99 93 73 50 39 20 18 16 14 9 7 7 8 8 8 7 5 4 4 4 4 5 6 6 5
85 100 99 86 78 69 62 69 72 80 89 100 100 100 99 98 94 84 100 90 73 59 34 18 16 14 11 7 7 7 8 8 7 4 4 4 4 4 4 6 6 6 6 5
74 68 65 74 66 66 82 96 100 100 100 100 100 93 73 76 62 70 81 75 62 43 18 15 13 10 7 7 7 8 8 5 4 4 4 4 4 5 6 6 6 6 5 5
69 78 78 83 82 96 100 100 100 100 100 100 87 71 69 71 75 92 83 75 39 16 13 11 8 7 7 7 8 7 5 4 4 4 4 4 6 6 5 5 6 5 5 5
86 93 100 97 100 98 91 93 100 93 81 91 82 69 61 75 85 77 83 41 16 13 10 8 8 7 7 7 6 4 4 5 5 4 5 7 6 6 5 4 5 5 4 4
98 94 89 80 76 78 83 81 81 85 83 75 58 66 81 87 80 72 42 15 13 11 8 8 7 7 7 6 4 4 5 5 5 6 7 6 5 5 5 5 4 4 4 4
70 60 66 79 79 85 88 96 94 80 75 54 67 79 79 70 58 19 14 13 10 7 7 7 7 6 5 5 5 6 6 5 6 6 6 5 5 5 5 4 4 4 3 3
75 88 99 98 89 83 85 85 84 63 66 77 66 60 56 40 21 15 13 9 7 7 7 7 6 5 5 5 6 7 6 6 6 6 6 5 5 4 4 4 4 2 2 2
81 67 68 74 85 97 99 82 73 59 47 52 48 34 20 15 14 11 8 7 7 7 7 5 5 5 6 6 7 6 6 6 6 6 6 5 5 4 4 4 2 2 2 3
92 92 78 75 81 68 47 48 42 44 42 26 17 14 14 13 10 8 7 7 7 6 5 5 6 6 6 6 6 6 6 6 6 6 5 5 5 5 4 3 2 2 3 3
67 64 71 62 43 37 40 38 30 26 17 14 13 12 10 8 7 6 6 5 5 5 5 6 6 6 6 6 6 6 6 6 6 6 5 5 5 4 3 3 2 2 3 3
70 55 36 33 30 26 19 18 14 14 13 12 9 7 6 6 6 5 4 5 5 5 6 6 6 6 6 6 6 6 6 6 6 6 5 5 5 4 3 3 3 3 3 3
34 28 28 18 18 18 17 16 13 11 9 7 6 6 6 5 4 4 5 5 5 5 6 6 6 6 6 6 6 6 6 6 6 5 5 5 4 3 3 3 4 3 3 4
20 16 17 17 17 16 15 14 10 7 6 6 6 5 4 4 4 4 5 5 5 6 6 6 6 6 6 6 6 6 6 6 5 6 6 4 4 4 3 3 4 4 4 4
16 15 15 14 14 13 12 8 7 6 6 5 4 4 4 4 5 5 5 5 5 6 6 5 6 6 6 6 6 6 6 6 6 5 4 4 4 4 4 3 3 3 3 4
14 14 12 12 10 8 7 6 6 5 4 4 4 4 5 5 5 5 5 6 6 6 6 6 6 6 6 6 6 6 6 6 5 4 5 5 4 4 4 3 3 3 4 3
12 10 9 8 6 5 6 4 4 4 4 4 4 5 5 5 5 6 6 6 6 6 6 6 6 6 6 6 6 6 6 4 4 5 5 5 4 4 4 3 3 3 4 4
7 7 6 5 5 5 4 4 5 5 5 5 5 5 5 5 6 6 6 6 6 6 6 6 6 6 6 6 6 5 4 5 5 5 5 5 4 4 3 3 3 3 3 4
6 5 4 4 3 4 4 4 5 5 5 5 5 5 5 6 6 6 6 6 6 6 6 6 6 6 7 6 5 5 5 5 5 5 5 5 4 4 3 3 3 3 3 3

GFSNGP_250_rhum_024.txt.gz
RH
50 59 62 54 43 41 40 46 46 50 54 41 52 46 45 49 56 53 54 61 67 69 75 76 87 99 100 100 100 99 100 100 100 100 72 56 45 31 16 11 8 6 6 6
42 42 50 54 42 39 40 44 41 44 46 50 47 45 51 50 55 61 69 74 75 75 84 100 100 100 100 99 98 100 100 93 80 58 43 35 24 13 11 7 6 6 6 6
44 38 61 60 53 58 55 53 51 50 52 50 44 46 50 58 69 76 81 80 90 100 100 100 97 96 100 100 100 100 83 63 40 33 26 16 13 10 7 6 6 6 5 4
32 33 49 56 48 64 69 63 55 56 45 41 53 62 75 78 88 94 99 100 99 99 98 86 90 100 100 93 74 52 40 29 25 17 14 12 8 6 6 6 5 4 3 4
28 31 42 58 46 45 46 52 47 41 49 62 71 82 92 94 100 95 91 95 93 97 89 100 100 96 68 54 34 27 22 18 14 13 11 7 7 6 6 4 4 4 4 4
31 33 33 31 38 51 48 52 54 58 73 81 91 97 100 96 90 90 87 92 89 99 100 96 78 62 48 27 18 18 14 12 12 9 7 7 6 6 4 4 4 4 5 4
38 34 38 37 42 44 44 41 52 65 83 98 96 86 88 71 70 77 86 91 100 94 72 61 52 35 18 17 15 14 13 11 8 7 7 6 5 5 4 5 5 5 4 5
44 50 45 49 49 46 47 56 76 92 85 71 84 81 72 75 84 97 100 98 78 59 52 40 28 18 17 14 14 13 10 7 6 6 6 5 5 5 5 5 6 5 4 4
46 57 48 48 50 61 79 84 77 78 79 76 77 86 92 100 100 100 84 59 50 46 34 22 16 16 15 14 13 10 7 6 6 5 5 5 5 5 5 6 5 4 4 4
55 63 51 66 75 82 80 82 77 79 91 93 83 78 88 84 70 58 52 44 36 30 18 17 16 14 14 12 9 7 6 6 5 5 5 5 5 5 6 6 5 4 4 4
65 64 72 94 98 92 81 85 100 100 80 72 88 82 76 74 57 49 37 34 28 18 17 16 15 14 10 7 6 6 5 5 5 5 5 5 5 6 6 6 5 4 4 4
68 78 88 80 80 87 100 100 99 80 70 84 77 71 60 51 52 34 26 20 17 16 15 13 11 8 7 6 6 5 4 4 5 5 6 5 6 6 6 5 5 5 5 4
85 79 83 95 100 100 94 92 85 72 70 61 67 60 48 42 31 25 18 13 13 13 12 9 8 7 6 5 4 4 5 5 6 6 6 6 6 5 5 4 4 5 4 4
92 92 93 95 81 78 95 83 68 67 65 63 57 53 46 34 26 18 13 12 12 11 9 7 6 6 4 4 5 5 5 5 6 6 6 6 5 5 5 5 4 4 4 4
88 86 76 72 67 61 54 55 59 71 69 69 61 45 41 26 18 12 12 11 10 8 6 6 5 4 4 5 5 5 5 6 6 6 6 5 6 5 5 5 4 4 5 4
95 89 77 66 63 63 65 64 63 58 55 52 50 36 25 16 12 11 10 9 7 6 6 4 4 4 5 5 5 5 6 6 6 6 6 6 6 6 6 5 5 5 4 3
94 82 76 72 67 63 63 54 54 54 49 44 36 24 14 11 10 10 8 6 6 5 4 4 5 5 5 5 5 6 6 6 6 6 6 6 6 6 6 5 5 4 3 4
81 75 68 64 62 67 70 70 52 45 34 24 20 13 10 10 9 8 6 5 5 4 4 5 5 5 5 6 6 6 6 6 7 7 6 7 6 6 6 4 4 4 4 4
59 85 85 85 79 70 59 44 36 31 22 19 12 9 9 8 6 5 5 4 4 4 5 5 5 5 6 6 6 6 6 7 7 7 7 7 6 6 4 4 5 5 4 4
77 90 86 68 60 49 38 29 21 17 16 11 9 8 8 6 5 5 4 4 4 5 5 5 6 6 6 6 6 6 7 7 7 7 7 7 5 5 5 5 5 5 5 4
72 65 61 55 42 33 22 16 17 16 11 9 8 6 6 5 5 4 4 4 5 5 5 6 6 6 6 6 6 7 7 7 7 8 7 6 5 6 5 5 5 5 5 4
55 46 40 32 27 19 16 15 13 11 9 7 6 5 5 5 4 4 4 5 5 5 6 6 6 6 6 7 7 7 7 8 8 6 6 6 6 5 5 5 5 5 5 4
38 31 31 22 14 12 13 12 10 8 6 6 5 5 5 4 4 4 5 5 5 6 6 6 6 6 7 7 7 8 8 7 6 6 6 6 5 5 5 5 5 5 4 4
29 22 14 12 12 10 10 10 8 6 6 5 4 5 4 4 4 5 5 6 6 6 6 6 7 7 7 7 8 8 6 5 6 6 6 6 6 5 5 5 5 4 4 3
15 12 11 10 10 9 9 7 6 6 5 4 4 4 4 4 4 5 6 6 6 6 7 7 7 7 7 8 7 6 5 5 6 6 6 6 6 5 5 5 5 4 4 3
10 10 10 9 8 7 6 5 6 4 5 4 4 4 4 4 5 6 6 6 6 7 7 7 7 8 7 6 5 5 5 5 5 6 6 6 6 5 4 4 4 4 4 4
8 8 8 7 6 4 5 5 4 4 4 4 4 4 5 6 6 6 6 7 7 7 6 7 6 6 5 5 5 5 5 5 5 6 6 6 5 4 4 4 4 4 4 4

GFSNGP_250_rhum_030.txt.gz
RH
55 55 52 52 48 42 39 32 28 30 33 32 36 39 43 37 45 45 48 50 46 45 52 61 82 100 95 81 79 88 75 66 60 51 54 50 43 25 17 13 12 12 11 8
56 56 54 55 59 51 43 37 33 30 30 34 38 45 41 47 56 59 57 48 54 60 72 92 100 96 88 91 100 77 67 61 45 49 47 30 19 14 11 10 10 8 6 6
65 58 70 64 71 68 62 46 40 40 40 39 42 42 39 58 58 50 50 55 61 74 90 99 100 100 97 82 76 68 53 49 38 30 19 14 11 9 9 8 6 6 5 5
71 58 76 65 62 66 55 48 52 44 43 40 36 36 38 43 39 42 55 66 72 79 94 100 86 84 85 77 62 59 53 44 29 18 14 10 9 8 6 5 5 5 4 4
58 61 72 66 64 85 75 51 54 53 43 41 40 39 44 50 56 58 58 84 99 100 92 78 85 76 68 59 61 40 39 22 12 9 9 8 7 6 5 5 4 4 4 4
69 69 67 62 61 64 61 53 50 50 51 54 50 55 66 74 76 85 100 100 98 89 88 78 78 73 64 63 41 25 20 10 9 8 6 5 5 5 4 4 4 4 4 4
83 78 70 63 62 76 52 44 49 46 51 50 48 53 65 74 87 100 100 88 77 74 75 78 82 76 58 47 29 22 17 9 8 6 5 4 4 4 4 4 4 5 5 4
70 68 62 54 52 52 52 46 47 49 48 46 54 65 70 83 91 93 87 89 79 77 85 97 83 64 47 35 20 15 10 9 6 5 5 4 4 4 4 5 5 5 5 5
53 66 64 51 37 36 38 42 42 42 46 52 62 76 91 98 99 98 94 74 78 97 98 82 67 50 37 19 14 9 8 6 6 5 4 4 5 5 5 5 5 6 6 5
52 69 70 57 49 46 44 42 43 46 55 69 90 93 96 93 88 83 76 82 100 94 73 67 52 42 23 16 9 8 6 5 5 4 4 5 5 5 5 6 6 6 6 5
71 69 68 54 54 49 48 47 50 63 82 92 87 98 100 100 83 76 86 96 90 70 51 44 41 29 15 9 8 6 5 4 4 4 5 5 5 5 5 6 6 6 6 6
55 66 62 64 62 63 61 66 79 95 94 94 98 100 88 80 80 96 94 90 66 57 46 38 29 16 9 8 6 5 4 4 4 5 5 6 6 6 6 6 6 5 6 6
62 59 66 65 65 74 84 86 91 92 97 100 99 80 80 91 97 91 80 70 56 48 34 27 15 9 8 6 5 4 4 4 5 5 6 6 6 6 6 6 6 6 5 5
63 67 72 80 84 80 89 94 96 100 99 90 89 92 94 86 73 77 68 53 46 36 27 15 9 8 6 5 4 4 4 5 5 6 6 6 6 6 6 6 6 7 6 5
75 85 91 88 86 96 93 98 98 89 91 99 97 90 77 61 70 64 53 42 33 26 13 8 8 6 5 4 4 5 5 5 6 6 6 6 7 6 6 7 6 6 5 5
88 85 82 87 92 91 97 88 96 98 91 82 76 71 65 68 57 48 38 29 20 10 8 8 6 5 4 4 5 5 5 6 6 6 7 7 7 7 7 6 5 5 5 5
88 92 90 93 94 99 94 98 98 82 77 74 63 66 59 57 49 37 26 17 9 8 8 6 6 4 4 5 5 6 6 6 6 7 7 6 7 8 6 5 5 5 5 5
97 98 99 100 100 97 98 100 90 77 63 61 60 56 47 41 34 23 12 8 8 8 6 5 4 4 5 5 5 6 6 6 7 7 7 7 8 6 5 5 6 6 6 6
100 100 100 100 97 100 93 82 74 64 64 60 49 41 39 32 18 10 8 7 7 6 6 5 4 5 4 5 6 6 6 7 7 7 7 7 6 5 5 5 5 6 6 6
87 88 86 87 84 63 58 61 56 54 49 42 34 35 29 13 9 7 7 7 6 5 5 4 5 4 5 6 6 6 8 8 7 7 6 6 5 5 5 5 6 6 6 6
65 57 55 53 52 54 55 53 45 40 37 35 35 16 10 8 7 7 7 6 6 4 4 4 4 5 6 6 7 8 8 7 7 6 5 5 5 5 5 5 6 7 7 6
53 48 48 50 52 52 43 35 37 36 41 24 13 9 8 7 7 7 6 5 5 4 4 4 5 6 6 7 7 7 7 7 6 6 5 5 5 5 5 6 6 7 7 6
51 51 49 47 39 31 32 37 39 32 19 10 10 8 6 6 6 5 6 5 4 4 4 5 6 6 7 7 6 6 6 6 5 5 6 6 6 6 6 6 6 7 7 6
44 46 42 35 34 33 33 32 26 13 10 10 8 6 6 6 6 5 5 4 4 4 5 5 6 6 7 6 6 5 5 5 6 6 7 6 6 6 6 6 6 6 6 5
38 36 31 29 27 25 21 16 11 10 8 7 6 5 5 4 5 4 4 4 4 5 5 6 6 6 6 5 5 5 6 6 6 6 6 6 7 7 7 6 6 5 5 5
25 22 22 25 21 15 11 9 8 7 6 5 5 5 5 4 4 4 4 4 5 5 6 6 6 6 5 5 5 7 6 6 5 6 6 6 7 7 6 6 5 5 4 4
19 18 17 15 12 8 8 6 6 6 4 4 4 4 4 4 4 4 4 5 5 6 6 6 5 5 5 6 6 6 6 6 6 6 6 6 6 6 5 5 5 4 4 4

GFSNGP_250_rhum_036.txt.gz
RH
54 63 65 65 62 57 49 47 48 48 50 58 65 60 55 52 50 42 42 46 47 48 46 45 50 60 76 81 90 92 84 73 81 92 71 52 44 38 28 18 12 7 6 5
51 61 68 63 58 49 54 57 58 62 68 60 56 52 50 48 43 38 42 47 47 47 50 58 70 81 86 91 74 78 99 99 80 69 53 39 32 23 14 8 6 6 4 3
72 75 68 61 55 50 60 65 64 68 62 58 50 46 43 42 41 44 49 49 52 62 70 74 71 70 66 81 94 94 88 82 67 53 38 22 15 12 7 6 5 4 3 3
90 83 56 58 59 65 76 86 80 71 61 55 56 53 49 45 48 50 57 63 66 71 71 67 72 76 82 92 88 90 92 68 45 40 26 20 12 7 6 5 4 4 4 4
100 69 62 68 90 76 82 88 85 85 80 73 56 54 51 57 62 72 76 81 84 74 73 82 86 90 90 85 98 96 66 48 44 32 22 16 9 6 6 4 4 4 4 4
80 72 78 79 94 87 80 81 91 74 69 76 64 64 62 65 70 74 76 77 75 76 80 87 82 85 93 89 68 57 45 45 36 21 14 9 6 6 5 4 4 4 4 5
68 69 70 61 79 70 68 74 62 54 66 73 77 67 66 72 75 80 75 76 72 79 81 80 81 85 78 68 54 45 48 39 27 17 9 6 6 5 4 4 4 4 5 5
88 75 74 78 74 65 71 85 67 65 72 84 72 65 71 75 78 73 72 69 75 82 85 79 78 70 64 54 48 45 41 35 20 10 7 6 5 4 4 4 4 5 5 5
93 92 87 93 80 68 76 76 75 85 80 71 68 67 66 67 65 64 66 71 82 85 83 74 66 61 56 55 47 42 31 18 10 7 6 6 5 5 4 4 5 5 6 6
84 96 94 80 65 64 76 73 76 84 73 65 66 64 67 62 62 74 79 92 90 89 78 63 70 66 57 48 39 25 18 10 8 7 6 5 5 5 5 6 5 6 6 6
77 84 83 71 74 85 78 75 71 66 65 68 65 64 62 71 79 83 92 92 89 80 64 67 62 53 44 37 24 18 11 8 7 6 5 5 4 5 6 6 7 7 6 6
80 73 72 82 82 83 80 78 73 70 68 69 69 70 73 86 93 97 94 86 67 58 60 52 42 36 32 21 16 11 7 6 6 5 5 5 5 6 6 7 8 6 6 6
82 81 92 100 89 85 83 79 79 75 77 76 79 81 94 92 87 96 87 60 57 56 54 42 38 28 17 14 10 7 6 6 5 5 5 5 5 6 7 8 8 7 6 5
93 91 100 86 82 84 84 81 81 78 79 85 89 89 87 80 80 84 70 61 58 54 41 34 24 15 12 9 7 6 5 5 5 5 5 5 6 7 8 7 6 6 5 5
84 100 92 85 88 88 84 82 79 85 91 94 92 90 89 84 65 63 61 56 55 30 25 20 14 10 8 7 6 5 5 5 5 5 5 6 7 8 8 7 6 6 6 5
86 83 84 94 88 82 86 91 96 98 97 85 90 88 86 83 64 56 60 52 41 24 18 12 10 8 7 6 5 5 5 5 4 5 6 6 7 7 7 6 6 6 7 7
100 100 91 86 86 88 94 93 84 80 83 81 73 84 84 68 51 60 53 36 21 16 12 10 8 7 6 5 5 5 4 4 5 6 6 7 7 7 6 6 7 7 7 7
94 90 92 93 90 88 84 84 84 81 68 72 74 70 63 55 60 49 38 18 14 12 10 8 6 6 5 5 5 4 4 5 6 6 7 7 7 6 6 7 7 6 7 7
99 100 97 94 91 86 83 78 83 80 69 55 53 55 56 50 39 27 16 13 11 11 8 6 6 5 5 5 4 4 5 6 6 6 7 7 6 6 7 7 6 6 7 7
96 88 77 79 84 80 71 64 61 60 58 54 51 49 39 29 18 15 12 11 9 9 7 5 5 5 4 4 5 5 6 6 6 6 6 6 6 7 7 7 7 7 7 7
75 82 90 80 66 62 58 55 55 56 49 47 38 34 23 16 13 10 10 11 9 7 5 5 5 5 4 5 6 6 6 6 6 6 6 6 7 7 7 7 8 7 6 5
64 60 63 67 65 60 56 55 49 42 37 31 30 18 14 12 10 10 10 8 7 5 5 5 5 5 5 6 6 7 6 6 6 6 6 7 8 7 7 8 7 6 5 5
63 64 60 56 49 44 36 28 26 30 28 20 14 12 10 10 10 9 10 8 5 5 5 5 5 5 6 6 6 6 6 6 5 5 6 8 8 7 7 7 5 5 5 5
50 46 42 30 26 23 19 21 23 16 13 12 12 9 8 9 10 8 6 5 5 6 5 4 5 5 6 6 6 6 6 5 5 5 6 8 8 8 7 6 4 5 5 5
25 25 28 25 19 19 18 16 13 12 10 10 9 9 8 8 7 6 5 5 5 4 4 5 5 6 6 6 5 5 5 5 5 6 7 8 7 7 6 4 4 4 4 4
18 16 15 15 15 13 12 11 9 9 8 8 9 7 7 7 5 4 5 5 4 4 5 5 5 6 6 5 4 4 4 4 5 6 7 7 7 6 5 4 4 4 4 4
14 14 13 12 11 9 7 7 7 7 7 8 8 7 6 5 4 5 5 4 5 5 5 5 5 4 4 4 4 4 4 4 5 7 7 6 5 4 4 4 4 4 3 3

GFSNGP_250_rhum_042.txt.gz
RH
65 60 56 55 54 49 57 60 54 44 40 39 46 51 45 41 48 60 62 60 56 56 58 55 51 50 45 43 46 50 51 55 64 74 83 85 89 85 71 57 39 18 13 10
69 60 61 61 63 71 69 64 58 50 43 50 52 58 55 55 67 72 70 66 62 56 58 52 50 48 46 46 52 61 64 70 74 82 84 91 86 76 57 40 21 13 10 9
72 56 61 82 72 80 63 66 54 46 49 59 74 77 65 62 69 80 90 90 70 58 55 48 50 54 56 65 68 74 74 80 88 94 99 95 76 53 34 20 14 10 10 7
73 67 77 93 100 75 69 64 65 52 66 69 89 72 72 66 74 79 98 85 62 57 56 59 66 70 76 71 77 82 78 85 95 100 99 72 62 37 22 14 10 10 7 6
79 86 90 100 100 73 63 83 66 75 74 92 85 83 80 75 68 75 95 77 67 65 70 77 79 78 75 81 90 89 96 95 100 99 74 61 37 25 15 10 10 8 6 6
90 89 100 100 85 77 78 100 90 76 86 89 99 86 93 80 76 81 89 81 76 83 86 82 78 79 78 89 97 93 93 96 96 68 57 38 26 15 10 10 8 6 6 5
94 85 100 99 86 100 100 88 85 88 88 98 95 86 84 81 85 90 87 86 97 93 87 81 85 82 87 94 96 93 82 82 62 45 36 24 16 11 10 9 6 6 5 5
78 76 64 67 91 99 92 88 84 85 92 100 100 100 87 74 81 84 85 99 95 87 83 84 85 84 90 91 83 78 67 56 34 32 24 16 11 10 9 7 6 5 4 5
95 79 71 88 100 100 98 85 96 100 100 98 98 96 87 71 81 80 96 90 90 89 83 87 85 87 90 81 82 75 57 44 28 23 16 12 10 10 7 6 6 4 5 6
81 92 93 100 100 93 85 93 95 83 91 92 79 88 91 78 78 82 92 92 86 87 90 86 81 81 81 80 77 67 51 38 24 19 13 10 10 9 6 6 5 6 6 6
94 100 100 100 100 99 90 73 78 100 96 91 90 100 90 80 82 89 85 80 82 88 83 80 82 81 80 75 60 50 36 23 19 15 11 10 10 7 6 5 6 6 6 7
100 99 98 100 98 83 80 88 100 100 100 100 100 86 84 93 93 86 79 84 87 80 80 82 78 79 68 52 47 35 20 18 15 12 10 10 8 6 6 5 6 7 7 6
92 86 70 68 75 77 84 94 99 100 100 100 84 92 93 88 86 86 87 84 78 85 82 77 77 65 54 45 45 28 18 16 13 10 10 9 6 6 5 6 7 7 7 6
68 70 74 71 75 88 93 96 100 100 98 87 89 86 91 91 85 84 80 84 88 81 72 71 63 49 53 52 38 18 16 12 10 10 9 7 6 5 5 7 8 8 7 6
81 81 82 91 98 98 100 99 99 93 89 84 83 87 86 84 78 81 89 86 74 71 65 59 56 49 41 35 19 16 12 10 10 10 8 6 6 5 6 7 7 7 7 6
99 100 100 100 99 96 97 99 96 81 77 76 79 80 81 76 82 86 74 72 68 67 58 56 58 52 26 17 15 12 10 9 9 8 6 6 5 6 7 7 7 7 6 6
100 100 100 100 100 98 96 87 82 83 76 77 91 91 80 88 85 73 74 69 66 58 58 44 30 27 19 15 12 10 8 9 9 6 6 6 5 7 7 7 7 7 6 6
100 100 99 96 88 86 83 82 84 88 95 91 86 91 91 80 75 72 68 72 67 59 40 28 18 15 13 11 9 8 8 8 7 6 6 5 6 7 7 7 6 6 6 6
94 90 90 90 91 93 95 95 90 89 93 98 96 86 81 74 66 63 59 60 43 35 19 15 14 11 10 8 8 8 8 6 5 5 5 6 6 6 6 6 6 6 5 6
100 100 99 99 95 94 98 94 92 93 90 82 78 76 67 62 55 56 43 28 16 14 14 11 9 8 7 7 8 7 6 5 5 5 5 6 6 5 5 5 5 5 5 6
93 93 88 90 87 84 84 87 84 81 77 71 64 64 58 58 43 21 15 13 12 10 8 7 6 6 7 7 6 5 5 5 5 5 6 5 4 4 4 5 5 5 5 6
88 90 90 87 85 79 76 75 70 65 62 58 54 46 29 17 13 11 10 8 7 7 6 6 6 6 6 5 4 4 4 4 5 5 4 4 4 4 4 5 5 5 6 7
88 82 78 75 68 66 65 58 53 46 40 28 21 15 10 9 8 7 7 7 7 6 6 6 6 6 4 4 4 4 4 5 4 4 4 4 4 4 4 4 4 5 6 7
76 66 61 61 56 50 45 36 29 22 16 12 10 8 7 7 7 6 6 5 5 6 6 5 4 4 4 4 4 4 4 4 4 4 4 4 4 4 4 4 5 6 6 6
55 55 48 36 28 26 26 22 15 12 11 8 7 7 6 6 5 6 5 5 6 5 4 4 4 4 4 4 4 4 4 4 4 4 4 4 4 4 4 4 6 6 6 5
46 41 34 25 18 14 12 11 11 10 8 7 7 6 5 5 5 5 5 4 4 4 4 4 4 4 4 4 4 3 3 4 4 4 4 4 4 4 4 5 6 5 4 4
24 17 14 12 11 10 9 8 6 5 5 5 5 5 4 4 4 4 3 3 3 4 4 4 4 4 3 3 3 3 4 4 4 4 4 4 4 4 4 5 4 4 3 3

GFSNGP_250_rhum_045.txt.gz
RH
62 65 64 62 59 55 58 58 65 68 68 48 54 52 49 50 48 54 64 67 59 58 59 56 62 57 50 49 48 46 47 55 63 64 76 77 82 82 86 74 64 40 25 20
68 70 71 70 67 62 66 71 77 77 72 62 66 59 61 54 50 56 63 71 74 70 58 56 56 54 54 58 51 52 58 64 69 74 83 81 92 96 88 56 34 22 17 14
77 80 80 87 68 75 75 77 81 97 78 74 91 87 76 52 58 74 88 89 94 87 66 57 59 61 65 58 55 60 69 70 75 86 88 96 96 80 62 38 19 16 12 10
92 85 91 93 92 73 70 81 99 89 77 85 88 81 67 67 78 78 79 93 93 83 76 65 67 57 59 60 66 75 76 83 89 88 92 93 75 60 41 20 15 12 10 9
99 89 95 100 98 82 69 89 80 77 90 96 91 92 89 81 80 82 87 98 90 83 81 79 69 65 65 73 78 81 85 91 93 89 90 84 58 30 23 15 13 10 10 9
98 97 100 100 100 88 82 94 100 100 100 99 95 92 86 85 84 90 98 97 91 85 86 83 77 78 84 82 81 82 93 94 87 88 82 64 32 20 16 13 10 10 10 8
77 81 89 91 88 92 95 98 100 100 100 100 97 86 85 87 69 88 99 98 88 96 94 88 80 83 82 82 81 93 92 89 87 77 56 30 22 22 14 12 10 10 9 7
79 83 77 82 90 97 93 80 83 100 100 97 86 89 95 81 84 95 97 97 100 99 92 79 80 84 85 79 90 95 93 89 78 58 34 24 20 16 13 11 9 10 8 6
74 72 65 69 77 80 73 96 100 100 94 89 94 97 67 65 95 100 100 100 100 97 78 75 78 85 82 84 94 90 88 80 57 44 31 24 18 12 11 10 9 9 7 6
78 80 71 73 70 76 100 100 100 96 90 88 74 70 77 93 100 100 100 100 98 79 74 77 85 86 84 94 94 82 74 62 52 49 34 20 13 12 10 9 10 8 6 6
95 100 100 100 100 100 100 95 92 86 72 69 73 76 91 100 100 97 91 92 80 73 76 84 88 89 93 98 84 73 60 48 44 38 27 15 13 11 9 9 9 7 6 6
100 100 100 100 100 99 94 85 72 74 74 74 86 90 89 86 90 89 88 82 84 88 90 90 96 92 93 85 73 58 42 34 27 23 15 13 11 9 8 9 8 6 6 6
89 78 77 78 73 71 74 76 76 78 82 82 81 86 90 94 96 89 84 88 92 85 89 96 94 91 74 69 49 38 33 26 21 14 13 10 9 9 9 8 6 6 6 7
82 78 72 68 67 66 70 79 83 83 80 87 93 91 92 90 90 91 85 82 82 88 88 89 82 70 64 44 39 34 27 19 13 12 10 9 8 8 8 6 6 6 7 8
72 70 74 81 85 86 86 82 78 80 88 94 96 96 97 93 84 76 80 88 88 85 87 80 70 59 43 42 40 28 16 13 12 9 8 8 8 8 7 6 6 7 8 8
98 100 95 88 83 86 87 89 94 97 99 96 97 90 82 78 81 90 93 84 82 83 77 73 56 45 39 29 21 14 12 10 9 8 7 8 8 7 6 6 6 7 8 8
87 81 84 90 91 92 91 90 88 84 85 84 78 76 82 87 87 86 85 88 81 76 69 50 42 44 37 18 14 12 9 8 8 7 8 7 6 6 6 6 7 6 6 6
88 91 91 91 91 95 88 81 80 82 80 79 81 82 84 88 92 93 83 75 71 52 38 35 30 20 13 12 10 8 8 7 6 7 7 6 5 6 6 6 6 5 6 5
89 86 88 81 78 83 88 88 84 82 87 91 96 98 100 94 82 72 69 58 41 32 39 23 14 13 10 8 7 7 6 6 6 6 5 5 5 6 6 6 5 5 5 5
87 87 91 99 100 94 86 88 92 95 98 99 100 90 80 70 64 54 40 41 28 15 13 11 10 8 7 6 6 6 6 6 5 4 5 5 6 6 6 5 5 5 5 5
98 99 98 90 83 83 87 98 100 100 91 79 78 69 62 54 38 40 36 19 14 12 10 7 7 7 6 6 6 6 5 4 4 5 5 6 6 6 5 5 5 5 5 5
95 94 88 85 89 97 100 95 85 79 80 70 58 42 32 36 34 20 12 9 9 7 7 6 6 6 6 5 5 4 4 4 5 5 5 5 5 5 5 5 5 5 5 5
86 87 90 97 95 85 75 70 70 61 47 35 28 28 22 14 11 9 8 8 7 6 6 6 6 6 4 4 4 4 4 5 5 5 4 4 5 5 6 6 6 6 5 5
82 86 86 82 78 72 61 50 36 29 24 26 20 12 9 8 8 6 6 6 5 5 5 5 4 4 4 4 4 4 4 4 4 4 4 5 6 6 6 6 6 6 5 5
79 75 64 54 54 45 35 30 24 18 13 11 10 8 7 6 5 5 5 5 5 4 4 4 4 4 4 4 4 4 4 4 4 5 5 6 5 6 6 6 5 5 5 5
54 50 43 33 29 26 18 14 12 10 9 8 7 6 6 6 5 5 4 4 3 3 4 4 4 4 3 3 3 4 4 4 5 5 4 4 4 4 4 5 5 4 4 4
34 30 24 18 14 11 10 8 7 6 5 5 6 5 5 5 5 4 3 3 4 4 4 3 3 3 3 4 4 4 4 3 3 3 3 3 3 3 3 3 3 3 3 3

GFSNGP_250_rhum_048.txt.gz
RH
83 78 65 63 61 60 58 58 62 55 61 49 74 77 74 62 64 62 57 56 55 70 74 59 51 54 60 73 78 76 77 72 70 63 59 62 79 83 81 86 79 68 67 41
83 68 65 67 68 61 61 63 64 65 76 57 64 78 82 75 70 66 66 65 70 82 66 57 51 60 76 89 91 82 84 83 67 63 62 77 85 90 94 86 74 67 49 21
83 72 71 77 67 64 60 59 64 72 79 83 91 92 86 81 82 90 90 76 79 81 73 66 56 72 92 95 86 88 89 77 67 66 75 92 98 98 98 80 67 37 22 14
79 80 81 86 80 63 63 74 70 73 82 85 86 90 88 84 100 100 90 84 85 79 71 60 67 81 92 95 94 89 86 73 75 76 93 94 98 100 84 68 44 22 14 12
90 83 95 99 95 80 66 74 64 76 81 79 75 75 88 100 100 95 89 89 80 72 62 63 77 96 99 96 93 92 83 81 79 93 90 93 98 83 66 36 23 14 12 11
82 90 91 97 90 86 84 84 100 91 84 77 73 76 88 100 100 92 89 82 77 61 66 79 94 99 100 96 92 91 88 82 86 86 97 95 83 63 34 23 19 13 11 10
68 68 79 79 80 85 91 98 96 95 97 96 99 100 100 100 95 96 84 71 63 68 76 87 93 90 92 86 90 89 83 78 85 92 98 86 56 31 22 17 14 12 11 9
58 58 60 68 73 85 89 89 86 90 91 91 100 100 100 98 92 80 65 68 72 77 83 88 92 87 91 97 93 78 75 80 93 95 81 54 39 28 28 15 11 11 9 8
69 70 70 77 84 83 82 85 82 79 99 100 100 100 92 79 71 68 71 72 82 82 78 90 91 94 100 91 79 81 81 99 93 78 50 36 30 22 17 13 12 10 9 8
86 89 86 88 85 81 78 84 100 100 100 82 68 70 70 64 65 67 75 83 80 76 88 93 98 93 87 79 81 86 100 90 70 46 38 33 23 14 11 11 10 9 8 8
98 93 85 79 80 85 88 98 99 81 73 70 67 64 65 69 78 87 80 76 78 86 88 91 92 82 77 83 85 94 89 67 48 41 29 19 16 13 12 10 9 8 8 8
100 100 100 100 100 100 93 82 80 84 74 70 83 85 86 86 81 72 74 74 85 90 90 85 76 80 90 82 94 88 72 52 41 26 17 12 11 11 10 8 8 8 8 6
100 100 100 100 95 96 98 100 92 75 83 81 85 83 80 75 74 72 77 86 85 84 77 78 90 92 87 98 83 64 49 38 24 17 13 12 11 9 8 8 8 8 7 5
80 82 91 98 88 72 66 75 84 84 85 81 77 74 75 79 80 86 85 87 83 77 81 91 90 90 95 74 60 43 34 24 17 13 12 10 10 8 7 8 8 6 6 6
96 89 76 68 66 77 84 78 78 75 71 71 74 76 80 82 77 80 81 77 77 86 88 88 92 82 68 49 35 28 20 13 12 12 11 9 8 7 7 7 6 6 6 6
72 70 77 82 80 76 76 72 69 73 74 77 77 79 76 72 76 80 82 91 93 81 86 84 83 58 39 27 17 15 13 13 11 10 8 8 7 7 6 5 5 6 6 6
75 85 88 85 83 77 76 82 78 78 78 75 72 70 76 86 84 85 82 84 87 89 87 63 46 30 19 16 12 12 11 11 9 8 7 7 7 5 5 5 6 6 6 6
87 88 86 81 78 76 77 78 80 76 77 79 82 86 85 81 82 87 96 100 87 65 48 31 23 15 12 11 11 10 9 8 7 7 6 5 5 5 5 6 6 6 6 5
90 86 77 81 83 76 76 83 91 92 92 91 86 85 89 93 96 97 87 69 48 27 26 20 15 11 10 9 8 8 7 6 6 5 5 5 5 6 6 6 6 5 5 5
97 96 98 98 96 97 99 97 94 90 89 89 93 99 87 83 80 65 45 29 29 19 13 10 10 10 8 8 7 6 6 5 4 5 5 5 6 6 5 5 5 5 6 6
95 98 99 97 98 96 91 92 92 92 89 89 75 72 74 59 43 32 28 20 16 12 10 9 8 7 7 6 6 6 4 4 5 5 5 5 5 5 5 5 5 6 7 7
100 99 97 91 86 85 84 82 80 78 69 69 66 53 40 27 24 26 19 11 10 9 8 7 7 6 6 6 5 4 4 5 5 5 4 4 4 4 5 6 6 6 7 7
89 84 81 78 74 74 73 74 71 68 62 58 42 26 21 21 16 12 12 10 7 7 6 6 6 5 4 4 4 4 5 4 4 4 4 4 5 5 5 6 5 5 5 5
79 77 72 74 80 79 75 67 59 47 32 21 18 16 13 12 12 8 6 6 6 6 5 5 4 4 4 4 4 4 3 4 4 5 5 4 4 4 4 4 4 4 4 4
72 74 74 71 68 64 57 39 25 21 22 20 14 12 10 7 6 7 6 6 5 4 4 4 4 4 4 3 3 3 4 4 4 4 4 3 3 3 3 3 3 3 3 3
77 72 64 52 40 30 25 21 21 17 14 12 9 7 7 7 6 5 5 4 4 4 4 4 3 3 3 3 3 3 3 3 3 2 2 2 3 3 3 3 3 3 3 3
55 45 38 30 23 19 17 15 12 10 8 6 6 7 6 6 5 4 4 4 4 4 4 3 3 3 3 3 3 3 2 2 2 2 2 2 2 2 2 2 2 2 2 3